TimeEST,TemperatureF,Dew PointF,Humidity,Sea Level PressureIn,VisibilityMPH,Wind Direction,Wind SpeedMPH,Gust SpeedMPH,PrecipitationIn,Events,Conditions,WindDirDegrees,DateUTC
12:00 AM,26.6,26.6,100,30.53,0.2,Calm,Calm,-,N/A,Fog,Light Freezing Fog,0,2012-11-17 05:00:00
1:00 AM,27,26,97,30.54,0,NNW,2.3,,,,,330,2012-11-17 06:00:00
1:00 AM,26.6,26.6,100,30.54,0.2,NNW,3.5,-,N/A,Fog,Light Freezing Fog,330,2012-11-17 06:00:00
2:00 AM,26.6,26.6,100,30.55,0.2,Calm,Calm,-,N/A,Fog,Light Freezing Fog,0,2012-11-17 07:00:00
3:00 AM,28.4,26.6,93,30.56,0.2,North,3.5,-,N/A,Fog,Light Freezing Fog,10,2012-11-17 08:00:00
4:00 AM,26.6,26.6,100,30.57,0.2,Calm,Calm,-,N/A,Fog,Light Freezing Fog,0,2012-11-17 09:00:00
4:25 AM,26.6,24.8,93,30.57,2.0,Calm,Calm,-,N/A,,Clear,0,2012-11-17 09:25:00
5:00 AM,26.6,26.6,100,30.59,2.5,NNW,2.3,-,N/A,,Clear,340,2012-11-17 10:00:00
5:42 AM,24.8,24.8,100,30.60,2.0,Calm,Calm,-,N/A,,Scattered Clouds,0,2012-11-17 10:42:00
6:00 AM,26.6,24.8,93,30.61,2.0,Calm,Calm,-,N/A,,Scattered Clouds,0,2012-11-17 11:00:00
6:22 AM,26.6,26.6,100,30.61,2.0,Calm,Calm,-,N/A,,Mostly Cloudy,0,2012-11-17 11:22:00
6:46 AM,26.6,26.6,100,30.62,1.0,Calm,Calm,-,N/A,,Mostly Cloudy,0,2012-11-17 11:46:00
6:54 AM,26.6,26.6,100,30.62,0.4,Calm,Calm,-,N/A,Fog,Fog,0,2012-11-17 11:54:00
7:00 AM,27,26,96,30.62,0,Calm,Calm,,,,Overcast,,2012-11-17 12:00:00
7:00 AM,26.6,26.6,100,30.62,0.4,Calm,Calm,-,N/A,Fog,Fog,0,2012-11-17 12:00:00
7:04 AM,26.6,26.6,100,30.62,0.2,Calm,Calm,-,N/A,Fog,Fog,0,2012-11-17 12:04:00
7:12 AM,26.6,24.8,93,30.63,0.5,NE,2.3,-,N/A,Fog,Light Freezing Fog,40,2012-11-17 12:12:00
7:29 AM,26.6,26.6,100,30.63,0.1,Calm,Calm,-,N/A,Fog,Light Freezing Fog,0,2012-11-17 12:29:00
8:00 AM,26.6,24.8,93,30.63,0.2,Calm,Calm,-,N/A,Fog,Light Freezing Fog,0,2012-11-17 13:00:00
8:24 AM,26.6,26.6,100,30.64,0.4,Calm,Calm,-,N/A,Fog,Light Freezing Fog,0,2012-11-17 13:24:00
8:29 AM,26.6,26.6,100,30.65,0.6,Calm,Calm,-,N/A,,Mostly Cloudy,0,2012-11-17 13:29:00
8:35 AM,28.4,26.6,93,30.65,1.5,Calm,Calm,-,N/A,,Overcast,0,2012-11-17 13:35:00
9:00 AM,30.2,30.2,100,30.65,2.0,Calm,Calm,-,N/A,,Overcast,0,2012-11-17 14:00:00
9:44 AM,35.6,35.6,100,30.65,3.0,ESE,2.3,-,N/A,,Overcast,120,2012-11-17 14:44:00
10:00 AM,37.4,37.4,100,30.65,3.0,East,3.5,-,N/A,,Overcast,80,2012-11-17 15:00:00
11:00 AM,42.8,39.2,87,30.66,8.0,ESE,3.5,-,N/A,,Overcast,120,2012-11-17 16:00:00
12:00 PM,46.4,37.4,71,30.65,10.0,SE,5.8,-,N/A,,Overcast,140,2012-11-17 17:00:00
1:00 PM,48,39,61,30.62,9,South,6.9,,,,Overcast,170,2012-11-17 18:00:00
1:00 PM,48.2,39.2,71,30.62,9.0,South,6.9,-,N/A,,Overcast,180,2012-11-17 18:00:00
2:00 PM,48.2,37.4,66,30.61,9.0,Variable,2.3,-,N/A,,Overcast,0,2012-11-17 19:00:00
3:00 PM,48.2,37.4,66,30.61,10.0,South,4.6,-,N/A,,Mostly Cloudy,190,2012-11-17 20:00:00
4:00 PM,46.4,37.4,71,30.61,8.0,ESE,4.6,-,N/A,,Mostly Cloudy,110,2012-11-17 21:00:00
5:00 PM,44.6,37.4,76,30.61,5.0,ENE,3.5,-,N/A,,Haze,70,2012-11-17 22:00:00
6:00 PM,41.0,35.6,81,30.62,5.0,SE,4.6,-,N/A,,Haze,130,2012-11-17 23:00:00
7:00 PM,38,35,82,30.63,5,ESE,4.6,,,,,120,2012-11-18 00:00:00
7:00 PM,37.4,33.8,87,30.62,5.0,ESE,4.6,-,N/A,,Haze,120,2012-11-18 00:00:00
8:00 PM,37.4,35.6,93,30.62,5.0,Calm,Calm,-,N/A,,Scattered Clouds,0,2012-11-18 01:00:00
8:36 PM,32.0,32.0,100,30.63,5.0,East,3.5,-,N/A,,Clear,80,2012-11-18 01:36:00
9:00 PM,32.0,30.2,93,30.63,5.0,ENE,2.3,-,N/A,,Clear,70,2012-11-18 02:00:00
10:00 PM,32.0,32.0,100,30.63,5.0,East,5.8,-,N/A,,Clear,80,2012-11-18 03:00:00
11:00 PM,33.8,32.0,93,30.62,3.0,East,6.9,-,N/A,,Clear,80,2012-11-18 04:00:00
11:17 PM,33.8,32.0,93,30.62,2.0,East,5.8,-,N/A,,Clear,90,2012-11-18 04:17:00
11:38 PM,33.8,33.8,100,30.62,1.5,East,5.8,-,N/A,,Clear,90,2012-11-18 04:38:00